Flag for Germany Weather past 2 weeks in Kehl, Baden-Württemberg, Germany

43 °F

Low clouds.

Feels Like: 38 °F
Forecast: 35 / 46 °F
Wind: 8 mph from Northwest

Location: Strasbourg Airport

Current Time: Oct 14, 2015 at 7:11:37 AM

Latest Report: Oct 14, 2015 at 6:30 AM

Visibility: 6 mi

Pressure: 30.01 "Hg

Humidity: 93%

Dew point: 41 °F

Location of KehlLocation

Historic Weather in Kehl — Graph


Kehl temperature yesterday

Maximum temperature yesterday: 55 °F (at 2:30 PM)
Minimum temperature yesterday: 36 °F (at 5:00 AM)
Average temperature yesterday: 45 °F

Past Weeks' High & Low Weather Summary

High72 °F (Oct 3, 3:00 PM)100% (Oct 5, 4:30 AM)30.42 "Hg (Oct 5, 4:30 AM)
Low36 °F (Oct 13, 5:00 AM)34% (Sep 29, 6:00 PM)29.68 "Hg (Oct 6, 8:30 AM)
Average55 °F73%30.05 "Hg
* Reported Sep 29 6:00 AM — Oct 14 6:00 AM, Kehl, Weather by CustomWeather, © 2015

Note: Actual official high and low records may vary slightly from our data, if they occured in-between our weather recording intervals... More about our weather records


Kehl weather history for previous 24 hours

Time TempWeatherWind HumidityBarometerVisibility
6:00 AM
Wed, Oct 14
43 °FLight rain. Fog.8 mph93%30.01 "Hg3 mi
5:30 AM43 °FPartly cloudy.9 mph93%30.01 "Hg4 mi
5:00 AM45 °FMostly cloudy.6 mph87%30.01 "HgN/A
4:30 AM45 °FOvercast.6 mph81%30.01 "HgN/A
4:00 AM45 °FOvercast.6 mph87%30.01 "HgN/A
3:30 AM45 °FPassing clouds.3 mph87%30.01 "HgN/A
3:00 AM45 °FPartly cloudy.5 mph87%30.01 "HgN/A
2:30 AM45 °FPassing clouds.5 mph87%30.01 "Hg6 mi
2:00 AM45 °FDrizzle. Fog.3 mph87%30.01 "Hg3 mi
1:30 AM45 °FPassing clouds.1 mph93%30.01 "Hg4 mi
1:00 AM45 °FPassing clouds.1 mph87%30.01 "Hg4 mi
12:30 AM46 °FOvercast.2 mph82%30.01 "Hg4 mi
12:00 AM46 °FPartly cloudy.3 mph87%30.01 "Hg4 mi
11:30 PM
Tue, Oct 13
45 °FMostly cloudy.3 mph87%30.01 "Hg4 mi
11:00 PM45 °FMostly cloudy.5 mph87%30.01 "Hg4 mi
10:30 PM46 °FLight rain. Mostly cloudy.3 mph82%30.01 "Hg4 mi
10:00 PM46 °FLight rain. Overcast.5 mph82%30.01 "Hg5 mi
9:30 PM46 °FOvercast.3 mph82%30.01 "Hg6 mi
9:00 PM46 °FOvercast.7 mph82%30.01 "HgN/A
8:30 PM46 °FOvercast.9 mph82%29.98 "HgN/A
8:00 PM46 °FMostly cloudy.12 mph82%29.98 "HgN/A
7:30 PM48 °FOvercast.10 mph76%29.98 "HgN/A
7:00 PM48 °FPartly sunny.12 mph76%29.98 "Hg5 mi
6:30 PM50 °FMostly cloudy.14 mph71%29.95 "Hg5 mi
6:00 PM52 °FOvercast.13 mph67%29.95 "HgN/A
5:30 PM54 °FOvercast.7 mph58%29.95 "HgN/A
5:00 PM54 °FOvercast.9 mph63%29.95 "HgN/A
4:30 PM54 °FPartly sunny.6 mph58%29.95 "HgN/A
4:00 PM55 °FScattered clouds.6 mph55%29.92 "HgN/A
3:30 PM55 °FSunny.2 mph55%29.92 "Hg10 mi
3:00 PM55 °FSunny.3 mph59%29.92 "Hg10 mi
2:30 PM55 °FSunny.1 mph59%29.95 "Hg10 mi
2:00 PM54 °FPassing clouds.2 mph58%29.95 "HgN/A
1:30 PM52 °FPassing clouds.3 mph62%29.95 "HgN/A
1:00 PM52 °FPassing clouds.6 mph62%29.95 "HgN/A
12:30 PM50 °FPassing clouds.5 mph67%29.95 "HgN/A
12:00 PM48 °FPassing clouds.5 mph71%29.95 "HgN/A
11:30 AM46 °FPartly sunny.7 mph76%29.95 "HgN/A
11:00 AM45 °FOvercast.8 mph76%29.95 "HgN/A
10:30 AM43 °FOvercast.7 mph81%29.95 "HgN/A
10:00 AM41 °FOvercast.5 mph87%29.95 "HgN/A
9:30 AM41 °FOvercast.5 mph81%29.95 "HgN/A
9:00 AM41 °FOvercast.5 mph81%29.95 "HgN/A
8:30 AM39 °FOvercast.2 mph87%29.95 "HgN/A
8:00 AM37 °FPassing clouds.2 mph87%29.95 "Hg4 mi
7:30 AM37 °FClear.No wind87%29.95 "Hg6 mi
7:00 AM36 °FClear.1 mph93%29.95 "Hg5 mi
Weather by CustomWeather, © 2015

See weather overviewHow to use our weather pages